• In Czech Republic
  • List of Countries
  • For 7 days
  • Water Temperature
  • Satellite Maps
  • Weather Map
  • Weather Widgets
  • user-avatar
    Login

    Hourly Weather Elbasan

    Today, 19 November, Sunday

    Time Temperature Precipitation Wind Pressure Humidity
    00:00 +10°C° 0 mm 2 mps 732 mmHg 83%
    01:00 +10°C° 0 mm 2 mps 732 mmHg 83%
    02:00 +10°C° 0 mm 2 mps 732 mmHg 84%
    03:00 +10°C° 0 mm 2 mps 732 mmHg 84%
    04:00 +10°C° 0 mm 1 mps 731 mmHg 85%
    05:00 +10°C° 0 mm 1 mps 732 mmHg 85%
    06:00 +10°C° 0 mm 1 mps 732 mmHg 85%
    07:00 +10°C° 0 mm 1 mps 732 mmHg 85%
    08:00 +11°C° 0 mm 1 mps 732 mmHg 79%
    09:00 +13°C° 0 mm 1 mps 732 mmHg 73%
    10:00 +14°C° 0 mm 1 mps 732 mmHg 67%
    11:00 +15°C° 0 mm 1 mps 732 mmHg 65%
    12:00 +15°C° 0 mm 2 mps 732 mmHg 64%
    13:00 +15°C° 0 mm 2 mps 731 mmHg 63%
    14:00 +14°C° 0.1 mm 2 mps 731 mmHg 67%
    15:00 +14°C° 0.1 mm 2 mps 731 mmHg 71%
    16:00 +13°C° 0.1 mm 2 mps 731 mmHg 76%
    17:00 +12°C° 0.1 mm 2 mps 731 mmHg 80%
    18:00 +12°C° 0.1 mm 2 mps 731 mmHg 84%
    19:00 +10°C° 0.1 mm 2 mps 731 mmHg 88%
    20:00 +10°C° 0.4 mm 2 mps 731 mmHg 89%
    21:00 +9°C° 0.4 mm 2 mps 731 mmHg 90%
    22:00 +9°C° 0.4 mm 3 mps 731 mmHg 91%
    23:00 +9°C° 0.4 mm 3 mps 731 mmHg 91%

    Tomorrow, 20 November, Monday

    Time Temperature Precipitation Wind Pressure Humidity
    00:00 +8°C° 0.4 mm 3 mps 731 mmHg 91%
    01:00 +8°C° 0.4 mm 3 mps 732 mmHg 91%
    02:00 +8°C° 0.6 mm 3 mps 732 mmHg 90%
    03:00 +8°C° 0.6 mm 3 mps 732 mmHg 90%
    04:00 +8°C° 0.6 mm 3 mps 732 mmHg 89%
    05:00 +7°C° 0.5 mm 3 mps 733 mmHg 88%
    06:00 +7°C° 0.5 mm 3 mps 733 mmHg 87%
    07:00 +5°C° 0.5 mm 3 mps 734 mmHg 86%
    08:00 +7°C° 0 mm 3 mps 734 mmHg 78%
    09:00 +8°C° 0 mm 3 mps 735 mmHg 69%
    10:00 +9°C° 0 mm 3 mps 735 mmHg 60%
    11:00 +9°C° 0 mm 3 mps 736 mmHg 57%
    12:00 +10°C° 0 mm 4 mps 736 mmHg 54%
    13:00 +10°C° 0 mm 4 mps 736 mmHg 51%
    14:00 +8°C° 0 mm 4 mps 736 mmHg 54%
    15:00 +8°C° 0 mm 3 mps 736 mmHg 57%
    16:00 +7°C° 0 mm 3 mps 737 mmHg 61%
    17:00 +5°C° 0 mm 3 mps 737 mmHg 63%
    18:00 +6°C° 0 mm 2 mps 738 mmHg 65%
    19:00 +5°C° 0 mm 2 mps 738 mmHg 68%
    20:00 +4°C° 0 mm 2 mps 739 mmHg 68%
    21:00 +4°C° 0 mm 2 mps 739 mmHg 68%
    22:00 +5°C° 0 mm 1 mps 740 mmHg 67%
    23:00 +5°C° 0 mm 1 mps 740 mmHg 67%

    Day after tomorrow, 21 November, Tuesday

    Time Temperature Precipitation Wind Pressure Humidity
    00:00 +5°C° 0 mm 1 mps 740 mmHg 66%
    01:00 +5°C° 0 mm 1 mps 740 mmHg 65%
    02:00 +5°C° 0 mm 1 mps 740 mmHg 63%
    03:00 +5°C° 0 mm 1 mps 740 mmHg 62%
    04:00 +5°C° 0 mm 1 mps 739 mmHg 60%
    05:00 +5°C° 0 mm 1 mps 739 mmHg 58%
    06:00 +5°C° 0 mm 1 mps 739 mmHg 56%
    07:00 +5°C° 0 mm 1 mps 739 mmHg 55%
    08:00 +7°C° 0 mm 1 mps 739 mmHg 50%
    09:00 +9°C° 0 mm 1 mps 740 mmHg 46%
    10:00 +11°C° 0 mm 1 mps 740 mmHg 42%
    11:00 +10°C° 0 mm 2 mps 739 mmHg 42%
    12:00 +12°C° 0 mm 2 mps 739 mmHg 42%
    13:00 +12°C° 0 mm 2 mps 739 mmHg 43%
    14:00 +10°C° 0 mm 2 mps 739 mmHg 48%
    15:00 +10°C° 0 mm 1 mps 739 mmHg 54%
    16:00 +9°C° 0 mm 1 mps 739 mmHg 59%
    17:00 +8°C° 0 mm 1 mps 739 mmHg 61%
    18:00 +7°C° 0 mm 1 mps 739 mmHg 63%
    19:00 +7°C° 0 mm 1 mps 739 mmHg 65%
    20:00 +7°C° 0 mm 1 mps 739 mmHg 65%
    21:00 +6°C° 0 mm 1 mps 740 mmHg 66%
    22:00 +6°C° 0 mm 1 mps 740 mmHg 66%
    23:00 +6°C° 0 mm 1 mps 740 mmHg 67%

    22 November, Wednesday

    Time Temperature Precipitation Wind Pressure Humidity
    00:00 +6°C° 0 mm 1 mps 739 mmHg 68%
    01:00 +6°C° 0 mm 1 mps 739 mmHg 69%
    02:00 +6°C° 0 mm 1 mps 739 mmHg 70%
    03:00 +6°C° 0 mm 1 mps 739 mmHg 72%
    04:00 +6°C° 0 mm 1 mps 739 mmHg 73%
    05:00 +6°C° 0 mm 1 mps 739 mmHg 73%
    06:00 +7°C° 0 mm 1 mps 739 mmHg 73%
    07:00 +7°C° 0 mm 1 mps 739 mmHg 73%
    08:00 +9°C° 0 mm 1 mps 740 mmHg 67%
    09:00 +11°C° 0 mm 1 mps 740 mmHg 60%
    10:00 +13°C° 0 mm 1 mps 740 mmHg 53%
    11:00 +14°C° 0 mm 1 mps 740 mmHg 52%
    12:00 +15°C° 0 mm 1 mps 739 mmHg 51%
    13:00 +15°C° 0 mm 1 mps 739 mmHg 50%
    14:00 +14°C° 0 mm 1 mps 739 mmHg 57%
    15:00 +13°C° 0 mm 1 mps 739 mmHg 63%
    16:00 +11°C° 0 mm 1 mps 739 mmHg 70%
    17:00 +11°C° 0 mm 1 mps 739 mmHg 71%
    18:00 +10°C° 0 mm 1 mps 739 mmHg 73%
    19:00 +10°C° 0 mm 1 mps 740 mmHg 74%
    20:00 +9°C° 0 mm 1 mps 740 mmHg 73%
    21:00 +9°C° 0 mm 1 mps 740 mmHg 72%
    22:00 +9°C° 0 mm 1 mps 740 mmHg 71%
    23:00 +9°C° 0 mm 1 mps 740 mmHg 70%

    23 November, Thursday

    Time Temperature Precipitation Wind Pressure Humidity
    00:00 +9°C° 0 mm 1 mps 740 mmHg 69%
    01:00 +9°C° 0 mm 1 mps 740 mmHg 68%
    02:00 +9°C° 0 mm 1 mps 740 mmHg 67%
    03:00 +9°C° 0 mm 1 mps 740 mmHg 66%
    04:00 +9°C° 0 mm 1 mps 740 mmHg 66%
    05:00 +9°C° 0 mm 1 mps 740 mmHg 65%
    06:00 +9°C° 0 mm 1 mps 741 mmHg 64%
    07:00 +9°C° 0 mm 1 mps 741 mmHg 63%
    08:00 +11°C° 0 mm 1 mps 741 mmHg 57%
    09:00 +13°C° 0 mm 0 mps 741 mmHg 51%
    10:00 +15°C° 0 mm 0 mps 742 mmHg 45%
    11:00 +16°C° 0 mm 1 mps 741 mmHg 44%
    12:00 +18°C° 0 mm 1 mps 741 mmHg 43%
    13:00 +17°C° 0 mm 2 mps 741 mmHg 42%
    14:00 +16°C° 0 mm 1 mps 741 mmHg 49%
    15:00 +15°C° 0 mm 1 mps 741 mmHg 56%
    16:00 +13°C° 0 mm 1 mps 741 mmHg 63%
    17:00 +12°C° 0 mm 1 mps 741 mmHg 65%
    18:00 +12°C° 0 mm 1 mps 742 mmHg 66%
    19:00 +11°C° 0 mm 1 mps 742 mmHg 68%
    20:00 +11°C° 0 mm 1 mps 742 mmHg 66%
    21:00 +10°C° 0 mm 1 mps 742 mmHg 64%
    22:00 +10°C° 0 mm 1 mps 743 mmHg 63%
    23:00 +10°C° 0 mm 1 mps 743 mmHg 61%

    24 November, Friday

    Time Temperature Precipitation Wind Pressure Humidity
    00:00 +10°C° 0 mm 1 mps 742 mmHg 59%
    01:00 +10°C° 0 mm 1 mps 742 mmHg 58%
    02:00 +10°C° 0 mm 1 mps 742 mmHg 56%
    03:00 +9°C° 0 mm 1 mps 742 mmHg 54%
    04:00 +9°C° 0 mm 1 mps 742 mmHg 52%
    05:00 +9°C° 0 mm 1 mps 742 mmHg 52%
    06:00 +9°C° 0 mm 1 mps 743 mmHg 51%
    07:00 +9°C° 0 mm 1 mps 743 mmHg 50%
    08:00 +11°C° 0 mm 1 mps 743 mmHg 45%
    09:00 +13°C° 0 mm 0 mps 743 mmHg 41%
    10:00 +15°C° 0 mm 0 mps 743 mmHg 37%
    11:00 +18°C° 0 mm 1 mps 743 mmHg 37%
    12:00 +18°C° 0 mm 1 mps 743 mmHg 37%
    13:00 +18°C° 0 mm 2 mps 742 mmHg 37%
    14:00 +16°C° 0 mm 1 mps 742 mmHg 44%
    15:00 +15°C° 0 mm 1 mps 742 mmHg 51%
    16:00 +13°C° 0 mm 1 mps 742 mmHg 58%
    17:00 +12°C° 0 mm 1 mps 742 mmHg 60%
    18:00 +12°C° 0 mm 1 mps 743 mmHg 61%
    19:00 +11°C° 0 mm 1 mps 743 mmHg 62%
    20:00 +11°C° 0 mm 1 mps 743 mmHg 61%
    21:00 +10°C° 0 mm 1 mps 743 mmHg 60%
    22:00 +10°C° 0 mm 1 mps 744 mmHg 59%
    23:00 +10°C° 0 mm 1 mps 743 mmHg 58%
    Show more